Saguache, CO

7:25 AM MDT on October 20, 2017 (GMT -0600)
Saguache

Weather History for K04V - January, 2014

Change the Weather History Date:

Tuesday, January 14, 2014

  Actual Average (KALS) Record (KALS)
Temperature  
Mean Temperature 26 °F -  
Max Temperature 33 °F 34 °F 54 °F (1969)
Min Temperature 19 °F -4 °F -33 °F (1964)
Degree Days  
Heating Degree Days 39    
Moisture  
Dew Point 14 °F    
Average Humidity 58    
Maximum Humidity 74    
Minimum Humidity 41    
Precipitation  
Precipitation 0.00 in - - ()
Sea Level Pressure  
Sea Level Pressure 30.31 in    
Wind  
Wind Speed 18 mph (NNW)    
Max Wind Speed 32 mph    
Max Gust Speed 46 mph    
Visibility 10 miles    
Events      
Averages and records for this station are not official NWS values.
T = Trace of Precipitation, MM = Missing Value Source: NWS Daily Summary

Daily Weather History Graph

Daily Weather History Graph

Search for Another Location

Airport or City:

Trip Planner

Search our weather history database for the weather conditions in past years. The results will help you decide how hot, cold, wet, or windy it might be!

Date:

Astronomy

Jan. 14, 2014 Rise Set
Actual Time 7:19 AM MST 5:07 PM MST
Civil Twilight 6:51 AM MST 5:36 PM MST
Nautical Twilight 6:18 AM MST 6:09 PM MST
Astronomical Twilight 5:47 AM MST 6:40 PM MST
Moon 4:15 PM MST (1/14) 5:56 AM MST (1/14)
Length of Visible Light 10h 45m
Length of Day
9h 47m
Waxing Gibbous, 98% of the Moon is Illuminated
Jan 14
Waxing Gibbous
Jan 15
Full
Jan 23
Last Quarter
Jan 30
New
Feb 6
First Quarter

Hourly Weather History & Observations

Time (MST) Temp. Windchill Dew Point Humidity Pressure Visibility Wind Dir Wind Speed Gust Speed Precip Events Conditions
12:12 AM 23.0 °F 9.6 °F 14.0 °F 68% 30.21 in 10.0 mi NW 16.1 mph - N/A   Clear
12:31 AM 23.0 °F 8.7 °F 14.0 °F 68% 30.21 in 10.0 mi NNW 18.4 mph 26.5 mph N/A   Clear
12:49 AM 23.0 °F 9.2 °F 14.0 °F 68% 30.21 in 10.0 mi NNW 17.3 mph - N/A   Clear
1:12 AM 26.6 °F 13.4 °F 14.0 °F 59% 30.22 in 10.0 mi NNW 18.4 mph 24.2 mph N/A   Clear
1:32 AM 26.6 °F 12.7 °F 15.8 °F 64% 30.22 in 10.0 mi NNW 20.7 mph 27.6 mph N/A   Clear
1:52 AM 24.8 °F 10.3 °F 15.8 °F 69% 30.22 in 10.0 mi NNW 20.7 mph 27.6 mph N/A   Clear
2:09 AM 24.8 °F 11.5 °F 15.8 °F 69% 30.23 in 10.0 mi NNW 17.3 mph 26.5 mph N/A   Clear
2:31 AM 24.8 °F 11.5 °F 14.0 °F 64% 30.23 in 10.0 mi NNW 17.3 mph - N/A   Clear
2:49 AM 23.0 °F 10.1 °F 14.0 °F 68% 30.22 in 10.0 mi NW 15.0 mph - N/A   Clear
3:12 AM 21.2 °F 7.8 °F 14.0 °F 74% 30.24 in 10.0 mi NNW 15.0 mph - N/A   Clear
3:32 AM 24.8 °F 11.9 °F 14.0 °F 64% 30.22 in 10.0 mi NNW 16.1 mph 20.7 mph N/A   Clear
3:52 AM 24.8 °F 10.3 °F 14.0 °F 64% 30.21 in 10.0 mi NNW 20.7 mph 26.5 mph N/A   Clear
4:08 AM 24.8 °F 7.6 °F 14.0 °F 64% 30.19 in 10.0 mi NNW 31.1 mph 42.6 mph N/A   Clear
4:29 AM 23.0 °F 8.0 °F 14.0 °F 68% 30.22 in 10.0 mi NNW 20.7 mph 32.2 mph N/A   Clear
4:51 AM 23.0 °F 11.7 °F 14.0 °F 68% 30.23 in 10.0 mi NNW 11.5 mph 23.0 mph N/A   Clear
5:10 AM 21.2 °F 4.9 °F 12.2 °F 68% 30.21 in 10.0 mi NW 23.0 mph - N/A   Clear
5:29 AM 23.0 °F 5.7 °F 12.2 °F 63% 30.21 in 10.0 mi NNW 28.8 mph 35.7 mph N/A   Clear
5:50 AM 26.6 °F 10.0 °F 14.0 °F 59% 30.20 in 10.0 mi NW 31.1 mph 46.0 mph N/A   Clear
6:08 AM 26.6 °F 10.8 °F 14.0 °F 59% 30.21 in 10.0 mi NNW 27.6 mph 39.1 mph N/A   Clear
6:32 AM 26.6 °F 12.4 °F 14.0 °F 59% 30.23 in 10.0 mi NNW 21.9 mph 32.2 mph N/A   Clear
6:48 AM 26.6 °F 10.6 °F 14.0 °F 59% 30.26 in 10.0 mi North 28.8 mph 35.7 mph N/A   Clear
7:10 AM 26.6 °F 15.2 °F 12.2 °F 55% 30.27 in 10.0 mi NNW 13.8 mph 27.6 mph N/A   Clear
7:30 AM 26.6 °F 15.2 °F 12.2 °F 55% 30.28 in 10.0 mi NNW 13.8 mph 24.2 mph N/A   Clear
7:52 AM 26.6 °F 16.2 °F 12.2 °F 55% 30.29 in 10.0 mi NNW 11.5 mph 15.0 mph N/A   Clear
8:09 AM 24.8 °F 14.6 °F 12.2 °F 59% 30.30 in 10.0 mi NW 10.4 mph - N/A   Clear
8:32 AM 26.6 °F 18.2 °F 12.2 °F 55% 30.31 in 10.0 mi NNW 8.1 mph - N/A   Clear
8:48 AM 28.4 °F 20.4 °F 12.2 °F 51% 30.32 in 10.0 mi NNW 8.1 mph - N/A   Clear
9:09 AM 28.4 °F 18.5 °F 12.2 °F 51% 30.33 in 10.0 mi NNW 11.5 mph 17.3 mph N/A   Clear
9:32 AM 30.2 °F 24.3 °F 12.2 °F 47% 30.33 in 10.0 mi North 5.8 mph - N/A   Scattered Clouds
9:50 AM 32.0 °F 23.6 °F 14.0 °F 48% 30.34 in 10.0 mi North 10.4 mph - N/A   Mostly Cloudy
10:08 AM 32.0 °F 19.8 °F 14.0 °F 48% 30.34 in 10.0 mi NNW 20.7 mph 27.6 mph N/A   Mostly Cloudy
10:29 AM 32.0 °F 21.2 °F 15.8 °F 51% 30.34 in 10.0 mi NNW 16.1 mph 26.5 mph N/A   Scattered Clouds
10:52 AM 32.0 °F 18.9 °F 14.0 °F 48% 30.34 in 10.0 mi NNW 24.2 mph 28.8 mph N/A   Scattered Clouds
11:07 AM 32.0 °F 19.2 °F 15.8 °F 51% 30.34 in 10.0 mi NNW 23.0 mph 28.8 mph N/A   Scattered Clouds
11:32 AM 33.8 °F 23.2 °F 14.0 °F 44% 30.34 in 10.0 mi NNW 17.3 mph 24.2 mph N/A   Clear
11:50 AM 33.8 °F 20.3 °F 15.8 °F 48% 30.33 in 10.0 mi NW 28.8 mph 35.7 mph N/A   Clear
12:10 PM 33.8 °F 20.3 °F 15.8 °F 48% 30.32 in 10.0 mi NW 28.8 mph 34.5 mph N/A   Clear
12:30 PM 33.8 °F 19.6 °F 15.8 °F 48% 30.31 in 10.0 mi NW 32.2 mph 42.6 mph N/A   Clear
12:51 PM 33.8 °F 19.6 °F 15.8 °F 48% 30.30 in 10.0 mi NNW 32.2 mph 44.9 mph N/A   Clear
3:12 PM 33.8 °F 19.9 °F 12.2 °F 41% 30.33 in 10.0 mi NW 31.1 mph 41.4 mph N/A   Clear
3:32 PM 33.8 °F 21.3 °F 12.2 °F 41% 30.34 in 10.0 mi NW 24.2 mph 32.2 mph N/A   Clear
3:52 PM 32.0 °F 18.6 °F 14.0 °F 48% 30.34 in 10.0 mi NW 25.3 mph 31.1 mph N/A   Clear
4:12 PM 32.0 °F 19.5 °F 14.0 °F 48% 30.34 in 10.0 mi NW 21.9 mph 25.3 mph N/A   Clear
4:32 PM 30.2 °F 18.1 °F 14.0 °F 51% 30.36 in 10.0 mi NW 18.4 mph 24.2 mph N/A   Clear
4:52 PM 28.4 °F 17.0 °F 14.0 °F 55% 30.37 in 10.0 mi NW 15.0 mph - N/A   Clear
5:12 PM 28.4 °F 19.1 °F 14.0 °F 55% 30.38 in 10.0 mi NW 10.4 mph 16.1 mph N/A   Scattered Clouds
5:32 PM 28.4 °F 15.1 °F 14.0 °F 55% 30.39 in 10.0 mi NW 20.7 mph 25.3 mph N/A   Scattered Clouds
5:52 PM 28.4 °F 13.0 °F 14.0 °F 55% 30.39 in 10.0 mi NW 28.8 mph 34.5 mph N/A   Scattered Clouds
6:12 PM 28.4 °F 13.8 °F 14.0 °F 55% 30.37 in 10.0 mi NNW 25.3 mph 33.4 mph N/A   Clear
6:32 PM 28.4 °F 14.4 °F 14.0 °F 55% 30.35 in 10.0 mi NNW 23.0 mph 34.5 mph N/A   Clear
6:52 PM 28.4 °F 15.1 °F 14.0 °F 55% 30.36 in 10.0 mi North 20.7 mph 28.8 mph N/A   Clear
7:12 PM 28.4 °F 18.0 °F 14.0 °F 55% 30.37 in 10.0 mi North 12.7 mph - N/A   Clear
7:31 PM 28.4 °F 19.7 °F 14.0 °F 55% 30.39 in 10.0 mi North 9.2 mph - N/A   Clear
7:51 PM 28.4 °F 20.4 °F 14.0 °F 55% 30.40 in 10.0 mi North 8.1 mph - N/A   Clear
8:12 PM 24.8 °F 12.4 °F 14.0 °F 64% 30.40 in 10.0 mi NNE 15.0 mph - N/A   Clear
8:32 PM 23.0 °F 11.1 °F 14.0 °F 68% 30.41 in 10.0 mi NNE 12.7 mph - N/A   Clear
8:52 PM 24.8 °F 14.6 °F 12.2 °F 59% 30.41 in 10.0 mi NNE 10.4 mph 19.6 mph N/A   Clear
9:12 PM 24.8 °F 16.1 °F 12.2 °F 59% 30.41 in 10.0 mi North 8.1 mph - N/A   Clear
9:32 PM 21.2 °F 11.7 °F 12.2 °F 68% 30.40 in 10.0 mi NW 8.1 mph - N/A   Clear
9:52 PM 21.2 °F 8.9 °F 12.2 °F 68% 30.40 in 10.0 mi NW 12.7 mph - N/A   Clear
10:12 PM 23.0 °F 17.0 °F 12.2 °F 63% 30.41 in 10.0 mi NNW 4.6 mph - N/A   Clear
10:32 PM 24.8 °F - 12.2 °F 59% 30.41 in 10.0 mi Calm Calm - N/A   Clear
10:52 PM 23.0 °F 18.4 °F 10.4 °F 59% 30.41 in 10.0 mi North 3.5 mph - N/A   Clear
11:11 PM 19.4 °F 9.5 °F 10.4 °F 68% 30.39 in 10.0 mi NNW 8.1 mph - N/A   Clear
11:32 PM 23.0 °F - 12.2 °F 63% 30.40 in 10.0 mi Calm Calm - N/A   Clear
11:52 PM 23.0 °F - 10.4 °F 59% 30.40 in 10.0 mi Calm Calm - N/A   Clear